FlightSource - Aviation Photo Database

World Wide Airport Lookup


Search by ICAO
Or
Search by City

FlightSource.ca - Aviation Photo Database - Prince George Airport Information
Airport Identification
Name: Prince George Airport
ICAO: CYXS
IATA: YXS
Airport Location
City: Prince George
Region: BC
Country: Canada
Continent: North America
Latitude: 53.8894
Longitude: -122.679
Airport Information
Type: Medium Airport
Elevation: 2267 Feet ASL
Flight Status: CYXS
More Info: CYXS
Airport Weather    
Metar: CYXS 221500Z AUTO 17003KT 9SM -SN BKN041 BKN060 OVC097 M07/M07 A3003 RMK SLP213
TAF:


Advertisement